Powrót do katalogu

EXPRESS AMU-3

AktywnyŁącznośćGEO
NORAD 50002·PAYLOAD·🇷🇺 Russia

Wystrzelony Dec 13, 2021 z Baikonur Cosmodrome

Loading…

TLE

ŚwieżeSource: Space-Track

Epoka: Sep 13, 2026, 17:37 UTC

1 50002U 21123B   26256.73412332 -.00000332  00000-0  00000-0 0  9991
2 50002   0.0376 254.6387 0000338   3.6141 101.7468  1.00272381  7928

Śledź EXPRESS AMU-3 w czasie rzeczywistym z AllMySat

Download on the App Store